Marshfield, WI

10:08 AM CST on December 10, 2019 (GMT -0600)
Marshfield Municipal

Weather History for KMFI - November, 2019

Change the Weather History Date:

Tuesday, November 12, 2019

  Actual Average Record
Temperature  
Mean Temperature 8 °F -  
Max Temperature 15 °F 40 °F 61 °F (1930)
Min Temperature 1 °F 23 °F 4 °F (1959)
Degree Days  
Heating Degree Days 57    
Moisture  
Dew Point -1 °F    
Average Humidity 63    
Maximum Humidity 80    
Minimum Humidity 47    
Precipitation  
Precipitation 0.00 in - - ()
Sea Level Pressure  
Sea Level Pressure 30.42 in    
Wind  
Wind Speed 9 mph ()    
Max Wind Speed 14 mph    
Max Gust Speed -    
Visibility 10.0 miles    
Events      
Averages and records for this station are not official NWS values.
T = Trace of Precipitation, MM = Missing Value Source: Averaged Metar Reports

Daily Weather History Graph

Daily Weather History Graph

Search for Another Location

Airport or City:

Astronomy

Nov. 12, 2019 Rise Set
Actual Time 6:53 AM CST 4:36 PM CST
Civil Twilight 6:21 AM CST 5:07 PM CST
Nautical Twilight 5:46 AM CST 5:42 PM CST
Astronomical Twilight 5:12 AM CST 6:16 PM CST
Moon 5:04 PM CST (11/12) 6:42 AM CST (11/12)
Length of Visible Light 10h 45m
Length of Day
9h 42m
Full, 100% of the Moon is Illuminated
Nov 12
Full
Nov 19
Last Quarter
Nov 26
New
Dec 4
First Quarter
Dec 11
Full

Hourly Weather History & Observations

Time (CST) Temp. Windchill Dew Point Humidity Pressure Visibility Wind Dir Wind Speed Gust Speed Precip Events Conditions
12:54 AM 5.0 °F -12.3 °F -2.9 °F 70% 30.52 in 10.0 mi NW 13.8 mph - N/A   Clear
1:54 AM 5.0 °F -11.6 °F -2.9 °F 70% 30.52 in 10.0 mi NW 12.7 mph - N/A   Clear
2:54 AM 3.9 °F -12.2 °F -2.9 °F 73% 30.52 in 10.0 mi NW 11.5 mph - N/A   Clear
3:54 AM 3.9 °F -13.7 °F -2.9 °F 73% 30.52 in 10.0 mi NW 13.8 mph - N/A   Clear
5:54 AM 3.0 °F -13.3 °F -2.9 °F 76% 30.53 in 10.0 mi NW 11.5 mph - N/A   Clear
6:54 AM 1.9 °F -12.9 °F -2.9 °F 80% 30.52 in 10.0 mi NW 9.2 mph - N/A   Clear
7:54 AM 3.9 °F -9.4 °F -2.0 °F 76% 30.53 in 10.0 mi NW 8.1 mph - N/A   Clear
8:54 AM 7.0 °F -8.3 °F -0.9 °F 70% 30.54 in 10.0 mi NW 11.5 mph - N/A   Clear
9:54 AM 10.0 °F -2.9 °F -0.0 °F 64% 30.53 in 10.0 mi WNW 9.2 mph - N/A   Clear
10:54 AM 10.9 °F -0.8 °F -0.9 °F 59% 30.53 in 10.0 mi WNW 8.1 mph - N/A   Clear
11:54 AM 12.9 °F 3.8 °F -0.0 °F 56% 30.48 in 10.0 mi West 5.8 mph - N/A   Clear
1:54 PM 15.1 °F 2.5 °F -2.0 °F 47% 30.43 in 10.0 mi WNW 10.4 mph - N/A   Clear
2:54 PM 15.1 °F 6.4 °F -2.0 °F 47% 30.41 in 10.0 mi SSW 5.8 mph - N/A   Clear
3:54 PM 15.1 °F 7.7 °F -2.0 °F 47% 30.39 in 10.0 mi West 4.6 mph - N/A   Clear
4:54 PM 12.0 °F 1.5 °F -2.9 °F 51% 30.37 in 10.0 mi SSW 6.9 mph - N/A   Clear
5:54 PM 10.9 °F -0.8 °F -2.0 °F 56% 30.34 in 10.0 mi South 8.1 mph - N/A   Clear
6:54 PM 10.0 °F -0.9 °F -0.0 °F 64% 30.32 in 10.0 mi South 6.9 mph - N/A   Clear
7:54 PM 10.9 °F 1.4 °F 1.0 °F 64% 30.29 in 10.0 mi South 5.8 mph - N/A   Clear
8:54 PM 10.9 °F -2.6 °F -0.9 °F 59% 30.27 in 10.0 mi South 10.4 mph - N/A   Clear
9:54 PM 10.9 °F -2.6 °F 1.0 °F 64% 30.27 in 10.0 mi South 10.4 mph - N/A   Clear
10:54 PM 12.0 °F -3.4 °F 1.9 °F 64% 30.24 in 10.0 mi South 13.8 mph - N/A   Partly Cloudy
11:54 PM 12.9 °F 0.7 °F 1.9 °F 62% 30.22 in 10.0 mi South 9.2 mph - N/A   Overcast